Погода в Ноглики

Погода в Ноглики : погода сейчас, прогноз погоды и архив. Всё, что Вы хотите узнать о погоде в Ноглики!

Хотите узнать прогноз погоды в Ноглики? Тогда Вам сюда: Погода в Ноглики

Поиск расширенной информации на нашем сайте:

Другие новости

Новости СМИ2

Главная страница сайта

Новости сайта

03.07.2017

Напоминаем, что на нашем специализированном сайте Метеоцентр.Азия вы можете получить высокодетализированные автоматические прогнозы погоды по пунктам России, СНГ и мира в авиационном формате (включающие направление и скорость ветра, видимость, явления погоды, количество и форму облачности, нижнюю и верхнюю границу облачности).

Рекомендуем: подбор тура пегас тур

Погода в Ноглики - сегодня

Время (UTC), дата Ветер
(°,м/с) 
Видим.   Явления Облачность Т
(°С)
Тd
(°С)
f(%) Тe
(°С)
Pmin
(гПа)
dP
(гПа)
Po
(мм)
O2
(г/м3)
Тmin Tmax R s Состояние
почвы
00 12.04.18 030 (СВ) 8-11{13}  20000 м    10/10 210 м кучево-дожд. 
[Cb cap]
-6.5 -8 89 -12  1012.3  755  313  -6.5         
09 12.04.18 360 (С) 5-9{12}  20000 м    3/3 600 м 
[Sc]
-5.8 -9.8 73 -10  1013.8  0.9  757  312    -4.6       
21 12.04.18 310 (СЗ) 4-7{08}  20000 м    9/6 600 м средняя 
[Sc|Ac trans]
-6.9 -11 73 -10  1016.2  0.8  758  315  -10.1    0.0  90  равномерный
мокрый или
старый снег
100% 
09 13.04.18 250 (З) 3-5{08}  20000 м    10/3 600 м средняя, верхняя 
[Sc|Ac trans|Ci sp]
-0.1 -10.4 46 -2  1013.5  756  306    +2.5       
21 13.04.18 270 (З) 1-3{06}  20000 м    8/3 600 м верхняя 
[Sc|Ci sp]
-3.3 -5.8 83 -3  1012.6  -0.4  756  309  -5    0.0  88  равномерный
мокрый или
старый снег
100% 
12 14.04.18 тихо () {04}  10 км    ясно 
-7.3 -7.4 99 -7  1015.9  0.4  758  315           
15 14.04.18 тихо () {02}  10 км    ясно 
-9.7 -9.6 100 -10  1015.4  -0.4  758  318           
18 14.04.18 240 (ЮЗ) 1-2{05}  10 км    ясно 
-12.3 -12.3 100 -12  1015.2  -0.4  757  321           
21 14.04.18 тихо () {05}  20000 м    9/8 600 м средняя 
[Sc|Ac trans]
-9.7 -9.8 99 -10  1014.4  -0.7  757  317  -12.8      87  равномерный
мокрый или
старый снег
100% 
09 15.04.18 110 (В) 3-4{07}  20000 м    5/5 600 м 
[Sc]
-4.4 -6.4 86 -7  1009.9  -0.7  754  309    -2.8       
21 15.04.18 180 (Ю) 3-4{04}  20000 м    10/10 300 м 
[Sc]
-7.1 -7.1 100 -10  1006.1  -0.5  751  311  -7.1      85  равномерный
мокрый или
старый снег
100% 
03 16.04.18 090 (В) 4-6{08}  20000 м    ясно 
-0.2 -4.1 75 -3  1004  -1.3  749  303           
09 16.04.18 230 (ЮЗ) 2-5{08}  20000 м    1/0 средняя 
[Ac trans]
+4.1 -8.8 38 +4  1003  0.2  749  298    +6.5       
12 16.04.18 230 (ЮЗ) 4-8{10}  10 км    ясно 
+1.4 -7.9 50 -1  1003.9  0.9  749  301           
15 16.04.18 240 (ЮЗ) 3-5{09}  10 км    ясно 
+1.3 -8.2 49 1002.8  -1.1  748  301           
18 16.04.18 270 (З) 2-4{07}  10 км    ясно 
-0.5 -5 72 -1  1004  1.2  749  303           
00 17.04.18 220 (ЮЗ) 3-6{06}  20000 м    ясно 
+7.6 -5.4 39 +7  1005.5  0.1  751  295           
03 17.04.18 230 (ЮЗ) 4-8{08}  20000 м    ясно 
+11.4 -7.4 26 +11  1004.7  -0.8  750  291           
09 17.04.18 240 (ЮЗ) 3-6{11}  20000 м    10/0 средняя, верхняя 
[Ac trans|Ci sp]
+10 -6.1 32 +10  1003  -0.4  749  292    +13.3       
21 17.04.18 250 (З) 5-8{09}  20000 м    1/0 верхняя 
[Ci fib]
+5.9 -1.7 58 +4  1004.2  0.5  749  296  +3.8      69  равномерный
мокрый или
старый снег
100% 
09 18.04.18 250 (З) 2-3{05}  20000 м  в посл. час ливневой дождь  9/8 600 м кучево-дожд., средняя 
[Cb cap|Ac trans]
+2.3 +2.3 100 +2  1009.2  1.1  753  301    +7.8  0.3     
21 18.04.18 230 (ЮЗ) 2-4{04}  0500 м  туман  ?/?  
-2 -2 100 -3  1012  0.7  755  307  -2.8      65  равномерный
мокрый или
старый снег
100% 
03 19.04.18 040 (СВ) 1-2{03}  20000 м    ясно 
+7.6 -11.8 24 +9  1012.2  0.1  755  297           
06 19.04.18 110 (В) 4-5{05}  20000 м    ясно 
+5.6 -11.2 29 +4  1011.3  -0.9  755  299           
09 19.04.18 130 (ЮВ) 2-3{06}  20000 м    4/0 верхняя 
[Ci sp]
+3.5 -7.2 45 +3  1010.8  -0.5  754  301    +9.5       
Время (UTC), дата Ветер
(°,м/с) 
Видим.   Явления Облачность Т
(°С)
Тd
(°С)
f(%) Тe
(°С)
Pmin
(гПа)
dP
(гПа)
Po
(мм)
O2
(г/м3)
Тmin Tmax R s Состояние
почвы

Для получения пояснительной информации подведите курсор к названию столбца.

ПОГОДА в Ноглики - архив

Всё, что Вы хотите узнать о погоде в Ноглики - удобно и подробно!

Выберите нужную дату (начиная с 1 января 2015* года) и нажмите кнопку "Найти".
Будут отображены архивные сводки погоды по пункту Ноглики, начиная с указанной даты.


Отображать данные в формате CSV (для использования в таблицах Excel)


Внимание! Наш архив погоды предназначен исключительно для личного некоммерческого использования в познавательных целях. Если Вам необходимы официальные справки о состоянии погоды (для производственных, юридических, коммерческих и т.п. целей), обращайтесь в органы Росгидромета.

*Примечание: данная дата относится к архиву по метеостанциям СССР (Россия, СНГ, Балтия).
Архив по метеостанциям Зарубежной Европы и Азии (кроме Китая) хранится 10 дней, по другим регионам земного шара (Китай, Африка, Америка, Австралия, Океания) - 1 день.

Ноглики - район местоположения метеостанции


Название, широта, долгота, высота метеостанции:
Ноглики 51.9°ш. 143.1°д. 34 м над ур. моря [Российская Федерация]

Дополнительная информация

В oтличие oт бoльшинства пoгoдных сайтoв мы публикуем пoдрoбную метеoинфoрмацию в детальнoм прoфессиoнальнoм фoрмате.

Характеристики температуры и влажнoсти вoздуха измеряются на высoте 2 м в тени вдали oт зданий и деревьев.
Скoрoсть ветра измеряется на высoте 10 м (на урoвне рoста челoвека скoрoсть ветра ниже в 1.5-2 раза). Если метеoстанция нахoдится в гoрoде или в лесу, тo скoрoсть ветра занижена на 2-4 м/с пo сравнению с oткрытым местoм. Скoрoсть ветра над акватoриями крупных рек и oзёр, а также на вершинах хoлмoв на 2-5 м/с выше, чем в oбычных услoвиях.
Атмoсфернoе давление в разных тoчках местнoсти мoжет значительнo oтличаться oт давления на метеoстанции, в зависимoсти oт услoвий рельефа (при пoдъёме на 10 м давление пoнижается примернo на 1 мм рт.ст.).